Vertical_Velocity
-2 -0 1 1 1 -2 5 -5 10 -13 1 -8 -3 -0 -3 -4 -1 -2 -7 2 -1 -0 -1 -1 -0 0 2 5 4 1 -1 -2 -1 4 10 0 4 3 2 -3 3 -2 2 -2
-3 -1 1 1 -1 0 -0 -3 2 3 -9 -1 -9 -1 -1 -3 -2 -4 1 -2 -4 4 4 -0 1 1 4 -0 -1 -2 7 4 7 7 9 3 4 2 -2 5 2 3 0 4
-8 1 1 4 -11 -2 -2 0 4 4 -24 -2 -7 -2 -2 -3 -2 -1 -1 -2 -5 1 2 4 -1 4 2 10 14 10 9 -0 -1 2 7 5 4 -5 -0 -4 2 -2 3 2
-5 0 2 -25 -1 -0 3 -3 -1 0 -4 -1 -3 -7 2 -4 4 -4 -0 -3 -1 0 5 3 7 7 7 1 -4 0 10 8 1 5 8 4 -8 1 2 -1 5 0 3 -0
-2 0 -12 -7 -7 -1 3 -16 -1 0 -3 -3 -1 -1 -23 12 2 2 2 4 -2 3 3 4 2 5 2 7 8 8 -1 -1 -1 2 -1 -10 0 -4 -2 -1 3 4 2 1
-0 4 1 -9 -3 0 -1 -10 -2 2 -2 0 0 -0 -12 0 -1 -6 5 -6 -4 2 4 3 4 4 1 0 8 7 5 9 12 -14 -2 0 -1 -5 -3 0 6 3 -0 4
-1 -0 -6 -6 -7 4 8 -30 -0 0 -0 -1 1 -5 -6 -0 0 4 -4 -8 4 -0 1 1 2 6 9 -4 1 2 3 -0 -9 2 -4 1 -1 1 1 2 -0 1 3 1
-0 1 -12 -0 3 2 -16 -1 -1 -1 -2 -0 -5 -7 -4 6 -0 5 -16 2 2 3 3 6 8 2 -2 10 -1 0 -0 -5 5 2 -1 -5 3 2 2 1 3 -4 6 -1
-8 -13 -7 -2 -4 -7 -5 1 -9 3 -0 3 4 -5 3 -1 3 -0 -0 3 1 3 5 3 -2 6 5 0 2 1 2 4 2 -1 -3 3 1 5 2 0 -2 3 -1 3
23 -19 -7 -6 -13 0 -1 0 4 -2 2 3 3 1 -1 2 0 1 1 1 -3 2 3 0 1 -2 -1 -1 1 2 -0 -3 -2 -6 2 1 1 2 -0 1 -0 -2 2 -1
-8 -8 -1 -7 -5 -2 -2 8 1 -1 6 1 2 -7 2 2 -0 0 -0 -0 -1 -2 -3 -1 -4 -0 2 4 0 1 -1 -1 -2 4 2 0 2 2 1 -2 1 0 0 3
-19 -10 -0 -11 -7 2 2 -5 -2 4 -9 -2 3 -2 1 1 2 3 4 2 -2 -2 7 2 6 6 2 4 3 -0 -2 -2 1 0 -3 4 -0 -3 -1 -1 1 -1 2 -1
-21 1 5 -4 -0 -6 0 -2 -7 2 6 -2 -1 -1 -3 -1 -3 -1 1 -0 -1 1 -2 2 5 3 3 1 -3 -0 -1 -0 -2 -1 0 -1 0 -2 -4 -1 -0 2 -2 -2
3 14 -2 2 -11 1 4 -3 3 -4 -3 1 1 5 -6 -1 3 0 -1 0 -2 -0 1 -2 1 -0 2 -1 -0 -4 2 0 -0 1 -0 -0 -2 -2 1 0 1 -1 0 2
-10 -0 -12 -8 5 -3 4 3 2 -1 -1 -1 -1 2 1 0 -0 0 2 1 1 2 2 3 -1 -0 -0 2 -1 -2 -1 -2 -1 -0 1 -0 -1 -1 -0 -1 0 3 1 -1
1 3 3 3 -1 -4 -0 1 3 -1 1 -3 1 1 1 3 5 2 -1 -4 -2 -3 -2 -5 -2 0 0 -0 -2 -1 -1 -0 1 0 -2 -2 -2 -0 0 2 2 0 -1 -0
7 -5 5 -2 -1 -2 -6 4 1 -1 4 -1 0 -1 1 2 0 -1 0 3 4 2 0 -2 1 1 1 0 -1 -1 -0 0 -0 -2 -2 0 1 1 2 1 -1 -2 0 -1
5 3 6 4 -4 0 1 1 -2 -0 -2 -2 1 1 2 -1 -4 -1 0 1 -0 1 1 3 2 -0 -0 -1 0 -0 -1 -2 -1 -0 -0 -1 0 2 0 -1 -1 -1 -0 1
7 -1 -4 5 -6 -1 2 2 2 2 0 1 -1 -2 2 2 1 0 1 -2 -1 -2 -2 -1 -0 1 1 -0 -2 -2 -1 -0 -0 -1 -0 1 0 1 0 -0 -1 0 0 -0
-4 2 1 1 2 1 1 1 3 1 1 -1 3 1 -3 0 0 -0 -1 -1 1 3 1 0 0 1 -0 -1 -1 -1 0 1 -0 0 1 1 1 0 -0 -1 -1 -1 -1 0
3 1 2 2 1 2 3 1 0 -0 0 3 -1 -2 -0 -0 1 1 -2 -2 -0 0 1 1 -0 -0 -0 -1 -1 0 -0 -1 -1 0 0 -0 -1 -2 -1 0 -1 -1 -0 -0
2 -3 4 3 -0 -2 2 1 -1 -4 -1 -1 -1 0 -2 -2 -0 0 4 5 -1 -0 -0 -1 -0 -0 -1 -1 1 1 1 2 2 1 1 -1 -1 0 -0 -1 -0 1 -1 -1
5 3 4 6 6 1 -1 -0 -0 2 -1 -2 -4 -3 1 3 2 -2 -3 -2 -1 0 -0 -0 -1 -2 -1 0 1 1 2 1 1 -1 -1 -0 0 -1 -1 1 1 -0 -1 -0
-0 3 3 1 2 -0 -1 -2 2 2 3 0 2 2 1 -4 -1 -0 -1 0 1 -0 -1 -1 -1 -1 -0 0 1 1 1 -1 -1 -1 -0 -1 -1 -1 -1 0 -2 -1 0 -0
0 1 3 2 2 2 2 1 -1 -0 0 -1 -0 -0 1 0 6 -0 -1 -2 -2 -2 -2 -1 -1 -1 0 1 1 1 -0 -1 -3 -2 -1 -1 -0 -0 0 -1 0 0 -0 0
0 -0 0 2 4 3 0 -1 0 -1 -2 -3 -1 -1 -1 -1 -1 -0 -1 -2 -1 -2 -1 -0 -0 -0 -0 -0 -1 -1 -1 -1 -1 -0 -0 -0 1 -0 -1 -0 -0 -0 -0 0
1 2 1 0 -1 0 2 2 -1 -3 -1 0 2 1 0 -0 -0 -0 -0 -1 -1 -0 0 0 -0 -1 -0 -0 -1 -1 -1 -0 -0 -1 -1 -0 -0 0 -0 -0 -0 -0 -0 0
Height
1460 1461 1460 1460 1455 1451 1451 1448 1449 1431 1437 1419 1414 1412 1410 1407 1402 1399 1398 1397 1396 1395 1393 1393 1397 1401 1405 1411 1414 1418 1424 1432 1435 1442 1440 1445 1451 1455 1459 1464 1467 1470 1469 1471
1463 1457 1459 1460 1450 1442 1445 1440 1435 1432 1428 1415 1402 1403 1403 1401 1400 1396 1393 1392 1392 1390 1389 1388 1388 1392 1399 1403 1407 1415 1420 1426 1433 1439 1439 1442 1447 1450 1456 1461 1464 1465 1467 1468
1465 1456 1458 1459 1442 1440 1429 1426 1425 1424 1411 1405 1401 1395 1394 1394 1393 1390 1388 1386 1383 1383 1381 1380 1382 1386 1387 1397 1403 1408 1414 1420 1427 1436 1437 1440 1443 1449 1454 1460 1462 1462 1465 1464
1462 1452 1477 1432 1424 1420 1419 1415 1410 1409 1404 1400 1394 1387 1387 1385 1384 1384 1380 1377 1377 1375 1374 1372 1375 1379 1382 1387 1398 1407 1411 1413 1422 1430 1434 1437 1444 1446 1452 1457 1459 1459 1460 1462
1467 1447 1434 1428 1419 1417 1417 1415 1406 1402 1397 1393 1390 1389 1382 1380 1380 1377 1374 1372 1370 1367 1367 1365 1367 1371 1378 1384 1390 1397 1403 1411 1417 1424 1431 1437 1438 1443 1451 1455 1457 1457 1456 1459
1458 1453 1442 1420 1412 1411 1411 1413 1397 1394 1394 1393 1391 1394 1379 1376 1374 1371 1367 1365 1362 1360 1358 1357 1362 1366 1372 1379 1383 1392 1398 1402 1412 1424 1429 1432 1435 1440 1447 1453 1455 1455 1457 1456
1447 1447 1433 1415 1403 1407 1414 1403 1391 1391 1388 1390 1391 1385 1377 1374 1370 1368 1363 1361 1355 1353 1353 1355 1359 1363 1368 1376 1384 1388 1396 1405 1415 1418 1427 1432 1435 1438 1443 1447 1450 1453 1456 1455
1445 1458 1442 1403 1403 1408 1393 1387 1387 1388 1386 1383 1382 1376 1375 1371 1368 1364 1364 1362 1355 1355 1352 1355 1359 1359 1370 1374 1380 1389 1399 1408 1412 1417 1423 1430 1435 1437 1439 1443 1447 1451 1452 1454
1430 1416 1400 1396 1395 1392 1392 1390 1386 1383 1379 1378 1374 1372 1368 1366 1364 1363 1360 1358 1357 1357 1356 1356 1361 1367 1369 1374 1382 1391 1400 1404 1411 1416 1424 1431 1434 1435 1435 1440 1444 1448 1450 1449
1414 1395 1395 1391 1387 1385 1382 1380 1379 1378 1373 1371 1369 1367 1364 1362 1361 1360 1359 1357 1359 1358 1360 1360 1365 1368 1376 1380 1386 1393 1397 1405 1410 1415 1423 1428 1431 1433 1435 1438 1442 1445 1446 1447
1401 1384 1390 1381 1379 1377 1376 1374 1371 1371 1369 1367 1365 1361 1360 1359 1358 1358 1358 1357 1360 1362 1364 1364 1368 1374 1378 1382 1386 1392 1398 1404 1409 1417 1421 1425 1428 1432 1434 1437 1440 1441 1442 1443
1385 1379 1378 1374 1373 1373 1370 1369 1367 1364 1361 1360 1360 1357 1355 1354 1354 1355 1356 1356 1361 1366 1368 1367 1371 1372 1377 1384 1389 1393 1398 1403 1410 1415 1419 1423 1426 1429 1431 1435 1437 1438 1439 1440
1373 1370 1371 1368 1367 1367 1364 1363 1361 1358 1356 1353 1352 1352 1353 1353 1353 1354 1356 1357 1360 1363 1367 1369 1372 1376 1381 1386 1390 1395 1400 1404 1410 1414 1418 1421 1423 1427 1430 1432 1434 1435 1437 1438
1366 1367 1362 1360 1357 1358 1357 1356 1353 1352 1349 1348 1347 1348 1349 1350 1351 1353 1355 1357 1360 1364 1369 1373 1377 1380 1384 1388 1392 1397 1401 1406 1410 1413 1416 1419 1422 1426 1428 1429 1431 1433 1435 1435
1358 1357 1353 1349 1349 1348 1349 1347 1345 1343 1341 1342 1343 1344 1343 1345 1349 1352 1355 1357 1363 1366 1371 1374 1379 1382 1387 1390 1394 1398 1401 1405 1408 1411 1414 1418 1421 1423 1425 1427 1428 1430 1431 1432
1348 1345 1343 1342 1341 1340 1341 1339 1338 1338 1337 1338 1340 1341 1343 1346 1348 1352 1355 1360 1364 1366 1370 1376 1382 1385 1388 1392 1395 1398 1401 1404 1406 1409 1412 1416 1418 1421 1422 1424 1426 1427 1428 1429
1339 1335 1335 1333 1332 1332 1332 1333 1333 1334 1334 1336 1338 1341 1343 1346 1349 1353 1358 1362 1366 1369 1373 1378 1382 1386 1389 1392 1395 1397 1400 1403 1405 1408 1411 1414 1416 1418 1420 1421 1423 1424 1425 1425
1330 1326 1325 1323 1323 1325 1325 1328 1329 1331 1333 1335 1337 1340 1343 1347 1350 1355 1360 1363 1366 1371 1375 1380 1384 1386 1389 1392 1394 1397 1399 1402 1404 1406 1409 1411 1413 1415 1417 1418 1419 1420 1421 1421
1321 1316 1313 1312 1315 1317 1321 1323 1326 1328 1330 1333 1337 1340 1344 1349 1352 1356 1360 1364 1368 1372 1376 1380 1383 1386 1388 1391 1394 1396 1398 1400 1402 1405 1407 1409 1410 1412 1414 1415 1416 1417 1417 1417
1310 1303 1297 1301 1308 1312 1316 1320 1323 1325 1328 1332 1337 1341 1345 1350 1354 1358 1361 1365 1370 1374 1377 1379 1382 1385 1388 1390 1392 1394 1396 1398 1401 1403 1405 1406 1408 1409 1411 1412 1413 1413 1414 1413
1304 1300 1299 1301 1306 1311 1316 1319 1321 1324 1328 1333 1338 1342 1346 1350 1354 1358 1362 1366 1370 1373 1376 1379 1382 1384 1386 1388 1390 1393 1395 1396 1398 1400 1402 1404 1405 1407 1408 1409 1410 1410 1410 1409
1306 1304 1304 1305 1308 1313 1316 1319 1323 1327 1331 1335 1339 1343 1347 1351 1354 1358 1363 1366 1369 1372 1375 1377 1380 1382 1384 1386 1388 1390 1392 1394 1396 1397 1399 1401 1403 1404 1405 1405 1406 1406 1406 1405
1310 1309 1309 1310 1311 1313 1317 1321 1325 1329 1333 1337 1340 1344 1347 1350 1354 1357 1360 1364 1367 1370 1373 1375 1378 1380 1383 1385 1386 1387 1389 1391 1393 1395 1397 1399 1400 1401 1402 1402 1402 1402 1401 1400
1314 1313 1312 1313 1315 1317 1319 1323 1327 1331 1335 1338 1342 1345 1348 1350 1354 1357 1361 1364 1366 1369 1371 1374 1377 1379 1381 1382 1384 1385 1387 1389 1390 1392 1394 1396 1397 1398 1398 1398 1398 1398 1397 1394
1316 1315 1316 1317 1319 1321 1323 1325 1328 1332 1335 1338 1342 1345 1348 1351 1355 1356 1359 1362 1365 1368 1370 1373 1375 1377 1379 1380 1382 1384 1385 1387 1388 1390 1391 1392 1394 1394 1394 1394 1394 1393 1391 1389
1317 1316 1317 1318 1320 1322 1325 1327 1329 1332 1335 1338 1341 1344 1346 1349 1353 1356 1359 1362 1364 1366 1369 1371 1373 1375 1377 1378 1380 1381 1383 1385 1386 1387 1388 1389 1390 1391 1391 1390 1389 1388 1385 1383
1318 1318 1318 1319 1321 1323 1325 1327 1330 1332 1335 1337 1340 1342 1346 1349 1353 1355 1358 1360 1362 1365 1367 1369 1371 1373 1374 1376 1378 1380 1381 1382 1383 1384 1386 1387 1387 1387 1387 1386 1384 1382 1380 1377